GW2402 Weather Reports


Display with metric or nautical units.
time (UTC)temp
F
wind
direction
speed
MPH
gust
MPH
rain 1hr
in
rain 24hr
in
rain mn
in
humidity
%
barometer
mb
20260831010100 93 0 0.0 1.0 0.00 0.00 0.00 49 1011.8
20260831004546 94 0 0.0 0.0 0.00 0.00 0.00 48 1011.9
20260831003055 95 0 0.0 1.0 0.00 0.00 0.00 47 1012.0
20260831001547 95 81 0.0 1.0 0.00 0.00 0.00 46 1011.9
20260831000105 96 56 0.0 1.0 0.00 0.00 0.00 46 1011.8
20260830234550 96 0 0.0 1.0 0.00 0.00 0.00 47 1012.0
20260830233046 96 269 0.0 1.0 0.00 0.00 0.00 46 1012.0
20260830231558 97 0 0.0 2.0 0.00 0.00 0.00 45 1012.0
20260830230054 99 0 0.0 1.0 0.00 0.00 0.00 44 1011.9
20260830224600 98 0 0.0 1.0 0.00 0.00 0.00 43 1012.1
20260830223057 99 309 0.0 2.0 0.00 0.00 0.00 42 1012.1
20260830221555 100 0 0.0 4.0 0.00 0.00 0.00 41 1012.4
20260830220050 99 310 0.0 1.0 0.00 0.00 0.00 43 1012.6
20260830214554 98 280 0.0 4.0 0.00 0.00 0.00 45 1012.7
20260830213102 98 0 0.0 3.0 0.00 0.00 0.00 44 1012.8
20260830211552 97 0 0.0 2.0 0.00 0.00 0.00 46 1012.8
20260830210059 97 0 0.0 3.0 0.00 0.00 0.00 45 1012.9
20260830204555 96 0 0.0 1.0 0.00 0.00 0.00 47 1013.6
20260830203054 96 264 0.0 2.0 0.00 0.00 0.00 49 1014.0
20260830201549 96 235 0.0 5.0 0.00 0.00 0.00 50 1014.1
20260830200100 96 0 0.0 4.0 0.00 0.00 0.00 49 1014.5
20260830194555 96 0 0.0 2.0 0.00 0.00 0.00 50 1014.6
20260830193048 96 66 0.0 4.0 0.00 0.00 0.00 51 1015.1
20260830191559 95 0 0.0 2.0 0.00 0.00 0.00 52 1015.4
20260830190058 94 266 0.0 1.0 0.00 0.00 0.00 54 1015.5
20260830184556 94 0 0.0 2.0 0.00 0.00 0.00 55 1015.7
20260830183050 93 356 0.0 3.0 0.00 0.00 0.00 56 1015.8
20260830181547 93 0 0.0 5.0 0.00 0.00 0.00 57 1016.1
20260830180058 92 0 0.0 3.0 0.00 0.00 0.00 57 1016.3
20260830174548 93 0 0.0 2.0 0.00 0.00 0.00 59 1016.8
20260830173057 93 0 0.0 1.0 0.00 0.00 0.00 58 1016.7
20260830171558 91 0 0.0 1.0 0.00 0.00 0.00 62 1016.9
20260830170052 91 0 0.0 4.0 0.00 0.00 0.00 61 1016.9
20260830164600 90 215 0.0 2.0 0.00 0.00 0.00 64 1017.2
20260830163053 88 22 1.0 3.0 0.00 0.00 0.00 66 1017.4
20260830161608 88 0 0.0 4.0 0.00 0.00 0.00 70 1017.4
20260830160047 88 0 0.0 2.0 0.00 0.00 0.00 67 1017.4
20260830154556 87 347 0.0 2.0 0.00 0.00 0.00 71 1017.2
20260830153055 86 268 0.0 2.0 0.00 0.00 0.00 73 1017.4
20260830151550 84 0 0.0 3.0 0.00 0.00 0.00 77 1017.1
20260830150113 83 240 0.0 3.0 0.00 0.00 0.00 79 1017.0
20260830144556 83 354 0.0 1.0 0.00 0.00 0.00 80 1017.1
20260830143051 81 353 0.0 2.0 0.00 0.00 0.00 82 1017.1
20260830141549 81 0 0.0 1.0 0.00 0.00 0.00 83 1017.1
20260830140047 80 0 0.0 2.0 0.00 0.00 0.00 85 1017.0
20260830134558 79 0 0.0 0.0 0.00 0.00 0.00 86 1016.8
20260830133050 78 0 0.0 0.0 0.00 0.00 0.00 87 1016.6
20260830131547 77 0 0.0 0.0 0.00 0.00 0.00 87 1016.5
20260830130108 77 0 0.0 0.0 0.00 0.00 0.00 87 1016.3
20260830124553 76 0 0.0 0.0 0.00 0.00 0.00 88 1016.4
20260830123050 76 0 0.0 0.0 0.00 0.00 0.00 87 1016.3
20260830121601 77 0 0.0 0.0 0.00 0.00 0.00 87 1015.8
20260830120059 76 0 0.0 0.0 0.00 0.00 0.00 87 1016.0
20260830114605 77 0 0.0 0.0 0.00 0.00 0.00 86 1015.9
20260830113052 77 0 0.0 0.0 0.00 0.00 0.00 86 1015.6
20260830111559 77 0 0.0 0.0 0.00 0.00 0.00 86 1015.7
20260830110100 77 0 0.0 0.0 0.00 0.00 0.00 85 1015.5
20260830104600 77 0 0.0 0.0 0.00 0.00 0.00 84 1015.4
20260830103049 77 0 0.0 0.0 0.00 0.00 0.00 84 1015.3
20260830101554 78 0 0.0 0.0 0.00 0.00 0.00 83 1015.5
20260830100055 78 0 0.0 0.0 0.00 0.00 0.00 83 1015.3
20260830094550 78 0 0.0 1.0 0.00 0.00 0.00 82 1015.3
20260830093058 78 0 0.0 1.0 0.00 0.00 0.00 81 1015.2
20260830091557 79 0 0.0 1.0 0.00 0.00 0.00 80 1015.0
20260830090109 79 0 0.0 0.0 0.00 0.00 0.00 80 1015.4
20260830084600 79 0 0.0 0.0 0.00 0.00 0.00 79 1015.5
20260830083057 80 0 0.0 1.0 0.00 0.00 0.00 78 1015.4
20260830081549 80 0 0.0 1.0 0.00 0.00 0.00 78 1015.4
20260830080050 80 328 0.0 1.0 0.00 0.00 0.00 77 1015.5
20260830074615 81 0 0.0 1.0 0.00 0.00 0.00 76 1015.6
20260830073057 81 0 0.0 1.0 0.00 0.00 0.00 76 1015.7
20260830071546 81 350 0.0 1.0 0.00 0.00 0.00 75 1015.6
20260830070057 82 0 0.0 1.0 0.00 0.00 0.00 75 1015.7
20260830064549 82 245 0.0 2.0 0.00 0.00 0.00 73 1016.0
20260830063059 83 0 0.0 3.0 0.00 0.00 0.00 73 1015.6
20260830061545 83 0 0.0 2.0 0.00 0.00 0.00 72 1015.6
20260830060056 84 0 0.0 5.0 0.00 0.00 0.00 72 1015.7
20260830054553 84 0 0.0 5.0 0.00 0.00 0.00 71 1015.5
20260830053048 84 0 0.0 1.0 0.00 0.00 0.00 70 1015.5
20260830051554 85 262 0.0 1.0 0.00 0.00 0.00 70 1015.6
20260830050056 85 0 0.0 2.0 0.00 0.00 0.00 69 1015.4
20260830044614 86 0 0.0 1.0 0.00 0.00 0.00 69 1015.6
20260830043058 86 0 0.0 4.0 0.00 0.00 0.00 69 1015.5
20260830041635 87 0 0.0 2.0 0.00 0.00 0.00 68 1015.4
20260830040104 87 0 0.0 2.0 0.00 0.00 0.00 67 1015.5
20260830034602 88 0 0.0 1.0 0.00 0.00 0.00 67 1015.5
20260830033059 88 0 0.0 3.0 0.00 0.00 0.00 66 1015.2
20260830031556 88 0 0.0 3.0 0.00 0.00 0.00 65 1015.2
20260830030124 89 130 0.0 1.0 0.00 0.00 0.00 64 1015.1
20260830024558 89 0 0.0 2.0 0.00 0.00 0.00 62 1014.7
20260830023058 89 245 0.0 1.0 0.00 0.00 0.00 59 1014.4
20260830021555 88 266 0.0 0.0 0.00 0.00 0.00 59 1014.3
20260830020056 89 0 0.0 0.0 0.00 0.00 0.00 57 1013.9
20260830014608 89 0 0.0 0.0 0.00 0.00 0.00 56 1013.6
20260830013100 90 0 0.0 0.0 0.00 0.00 0.00 54 1013.3
20260830011557 91 0 0.0 0.0 0.00 0.00 0.00 53 1013.3